Time,TemperatureF,DewpointF,PressureIn,WindDirection,WindDirectionDegrees,WindSpeedMPH,WindSpeedGustMPH,Humidity,HourlyPrecipIn,Conditions,Clouds,dailyrainin,SolarRadiationWatts/m^2,SoftwareType,DateUTC
2013-01-10 00:03:00,51.0,51.0,-100.00,NE,40,0.0,4.0,99,0.00,,,0.02,0.000000,,2013-01-10 05:03:00,
2013-01-10 00:33:00,51.0,51.0,-100.00,NNE,22,2.0,4.0,99,0.00,,,0.02,0.000000,,2013-01-10 05:33:00,
2013-01-10 00:43:00,51.0,51.0,-100.00,NNE,22,2.0,4.0,99,0.00,,,0.02,0.000000,,2013-01-10 05:43:00,
2013-01-10 00:53:00,51.0,51.0,-100.00,NNE,22,2.0,4.0,99,0.00,,,0.02,0.000000,,2013-01-10 05:53:00,
2013-01-10 01:02:00,51.0,51.0,-100.00,NNE,22,2.0,4.0,99,0.00,,,0.02,0.000000,,2013-01-10 06:02:00,
2013-01-10 01:32:00,50.0,50.0,-100.00,NNE,33,0.0,2.0,99,0.00,,,0.02,0.000000,,2013-01-10 06:32:00,
2013-01-10 01:42:00,50.0,50.0,-100.00,NNE,33,0.0,2.0,99,0.00,,,0.02,0.000000,,2013-01-10 06:42:00,
2013-01-10 01:52:00,50.0,50.0,-100.00,NNE,33,0.0,2.0,99,0.00,,,0.02,0.000000,,2013-01-10 06:52:00,
2013-01-10 02:02:00,50.0,50.0,-100.00,NNE,33,0.0,2.0,99,0.00,,,0.02,0.000000,,2013-01-10 07:02:00,
2013-01-10 03:33:00,49.0,49.0,-100.00,NNW,348,3.0,5.0,99,-99.99,,,0.02,0.000000,,2013-01-10 08:33:00,
2013-01-10 03:42:00,49.0,49.0,-100.00,NNW,348,3.0,5.0,99,-99.99,,,0.02,0.000000,,2013-01-10 08:42:00,
2013-01-10 03:53:00,49.0,49.0,-100.00,NNW,348,3.0,5.0,99,-99.99,,,0.02,0.000000,,2013-01-10 08:53:00,
2013-01-10 04:02:00,49.0,49.0,-100.00,NNW,348,3.0,5.0,99,-99.99,,,0.02,0.000000,,2013-01-10 09:02:00,
2013-01-10 04:32:00,51.0,51.0,-100.00,East,82,1.0,5.0,100,0.00,,,0.02,0.000000,,2013-01-10 09:32:00,
2013-01-10 04:43:00,51.0,51.0,-100.00,East,82,1.0,5.0,100,0.00,,,0.02,0.000000,,2013-01-10 09:43:00,
2013-01-10 04:53:00,51.0,51.0,-100.00,East,82,1.0,5.0,100,0.00,,,0.02,0.000000,,2013-01-10 09:53:00,
2013-01-10 05:03:00,51.0,51.0,-100.00,East,82,1.0,5.0,100,0.00,,,0.02,0.000000,,2013-01-10 10:03:00,
2013-01-10 05:33:00,54.0,53.0,-100.00,North,358,2.0,4.0,98,0.00,,,0.02,0.000000,,2013-01-10 10:33:00,
2013-01-10 05:43:00,54.0,53.0,-100.00,North,358,2.0,4.0,98,0.00,,,0.02,0.000000,,2013-01-10 10:43:00,
2013-01-10 05:53:00,54.0,53.0,-100.00,North,358,2.0,4.0,98,0.00,,,0.02,0.000000,,2013-01-10 10:53:00,
2013-01-10 06:03:00,54.0,53.0,-100.00,North,358,2.0,4.0,98,0.00,,,0.02,0.000000,,2013-01-10 11:03:00,
2013-01-10 06:33:00,55.0,54.0,-100.00,ESE,108,2.0,5.0,95,0.00,,,0.02,0.000000,,2013-01-10 11:33:00,
2013-01-10 06:43:00,55.0,54.0,-100.00,ESE,108,2.0,5.0,95,0.00,,,0.02,0.000000,,2013-01-10 11:43:00,
2013-01-10 06:53:00,55.0,54.0,-100.00,ESE,108,2.0,5.0,95,0.00,,,0.02,0.000000,,2013-01-10 11:53:00,
2013-01-10 07:03:00,55.0,54.0,-100.00,ESE,108,2.0,5.0,95,0.00,,,0.02,0.000000,,2013-01-10 12:03:00,
2013-01-10 09:33:00,57.0,54.0,-100.00,ENE,62,4.0,11.0,91,-99.99,,,0.02,47.000000,,2013-01-10 14:33:00,
2013-01-10 09:43:00,57.0,54.0,-100.00,ENE,62,4.0,11.0,91,-99.99,,,0.02,47.000000,,2013-01-10 14:43:00,
2013-01-10 09:53:00,57.0,54.0,-100.00,ENE,62,4.0,11.0,91,-99.99,,,0.02,47.000000,,2013-01-10 14:53:00,
2013-01-10 10:03:00,57.0,54.0,-100.00,ENE,62,4.0,11.0,91,-99.99,,,0.02,47.000000,,2013-01-10 15:03:00,
2013-01-10 10:33:00,59.0,55.0,-100.00,SE,130,5.0,11.0,86,0.00,,,0.02,104.000000,,2013-01-10 15:33:00,
2013-01-10 10:43:00,59.0,55.0,-100.00,SE,130,5.0,11.0,86,0.00,,,0.02,104.000000,,2013-01-10 15:43:00,
2013-01-10 10:53:00,59.0,55.0,-100.00,SE,130,5.0,11.0,86,0.00,,,0.02,104.000000,,2013-01-10 15:53:00,
2013-01-10 11:03:00,59.0,55.0,-100.00,SE,130,5.0,11.0,86,0.00,,,0.02,104.000000,,2013-01-10 16:03:00,
2013-01-10 11:33:00,60.0,54.0,-100.00,East,99,4.0,10.0,80,0.00,,,0.02,160.000000,,2013-01-10 16:33:00,
2013-01-10 11:43:00,60.0,54.0,-100.00,East,99,4.0,10.0,80,0.00,,,0.02,160.000000,,2013-01-10 16:43:00,
2013-01-10 11:53:00,60.0,54.0,-100.00,East,99,4.0,10.0,80,0.00,,,0.02,160.000000,,2013-01-10 16:53:00,
2013-01-10 12:03:00,60.0,54.0,-100.00,East,99,4.0,10.0,80,0.00,,,0.02,160.000000,,2013-01-10 17:03:00,
2013-01-10 12:33:00,59.0,54.0,-100.00,ESE,108,5.0,9.0,82,0.00,,,0.02,166.000000,,2013-01-10 17:33:00,
2013-01-10 12:43:00,59.0,54.0,-100.00,ESE,108,5.0,9.0,82,0.00,,,0.02,166.000000,,2013-01-10 17:43:00,
2013-01-10 12:53:00,59.0,54.0,-100.00,ESE,108,5.0,9.0,82,0.00,,,0.02,166.000000,,2013-01-10 17:53:00,
2013-01-10 13:03:00,59.0,54.0,-100.00,ESE,108,5.0,9.0,82,0.00,,,0.02,166.000000,,2013-01-10 18:03:00,
2013-01-10 13:33:00,61.0,53.0,-100.00,ESE,108,6.0,16.0,76,0.00,,,0.02,228.000000,,2013-01-10 18:33:00,
2013-01-10 13:44:00,61.0,53.0,-100.00,ESE,108,6.0,16.0,76,0.00,,,0.02,228.000000,,2013-01-10 18:44:00,
2013-01-10 13:53:00,61.0,53.0,-100.00,ESE,108,6.0,16.0,76,0.00,,,0.02,228.000000,,2013-01-10 18:53:00,
2013-01-10 14:03:00,61.0,53.0,-100.00,ESE,108,6.0,16.0,76,0.00,,,0.02,228.000000,,2013-01-10 19:03:00,
2013-01-10 14:33:00,60.0,51.0,-100.00,SE,136,5.0,17.0,72,0.00,,,-99.99,144.000000,,2013-01-10 19:33:00,
2013-01-10 14:43:00,60.0,51.0,-100.00,SE,136,5.0,17.0,72,0.00,,,-99.99,144.000000,,2013-01-10 19:43:00,
2013-01-10 14:53:00,60.0,51.0,-100.00,SE,136,5.0,17.0,72,0.00,,,-99.99,144.000000,,2013-01-10 19:53:00,
2013-01-10 15:03:00,60.0,51.0,-100.00,SE,136,5.0,17.0,72,0.00,,,-99.99,144.000000,,2013-01-10 20:03:00,
2013-01-10 15:33:00,60.0,49.0,-100.00,SE,125,4.0,13.0,67,0.00,,,0.02,89.000000,,2013-01-10 20:33:00,
2013-01-10 15:43:00,60.0,49.0,-100.00,SE,125,4.0,13.0,67,0.00,,,0.02,89.000000,,2013-01-10 20:43:00,
2013-01-10 15:53:00,60.0,49.0,-100.00,SE,125,4.0,13.0,67,0.00,,,0.02,89.000000,,2013-01-10 20:53:00,
2013-01-10 16:04:00,60.0,49.0,-100.00,SE,125,4.0,13.0,67,0.00,,,0.02,89.000000,,2013-01-10 21:04:00,
2013-01-10 16:33:00,60.0,49.0,-100.00,SSE,168,6.0,12.0,68,0.00,,,-99.99,71.000000,,2013-01-10 21:33:00,
2013-01-10 16:44:00,60.0,49.0,-100.00,SSE,168,6.0,12.0,68,0.00,,,-99.99,71.000000,,2013-01-10 21:44:00,
2013-01-10 16:53:00,60.0,49.0,-100.00,SSE,168,6.0,12.0,68,0.00,,,-99.99,71.000000,,2013-01-10 21:53:00,
2013-01-10 17:04:00,60.0,49.0,-100.00,SSE,168,6.0,12.0,68,0.00,,,-99.99,71.000000,,2013-01-10 22:04:00,
2013-01-10 17:34:00,59.0,49.0,-100.00,SE,135,5.0,13.0,69,0.00,,,0.02,61.000000,,2013-01-10 22:34:00,
2013-01-10 17:44:00,59.0,49.0,-100.00,SE,135,5.0,13.0,69,0.00,,,0.02,61.000000,,2013-01-10 22:44:00,
2013-01-10 18:03:00,59.0,49.0,-100.00,SE,135,5.0,13.0,69,0.00,,,0.02,61.000000,,2013-01-10 23:03:00,
2013-01-10 18:33:00,59.0,50.0,-100.00,ESE,107,3.0,12.0,73,0.00,,,0.02,9.000000,,2013-01-10 23:33:00,
2013-01-10 18:43:00,59.0,50.0,-100.00,ESE,107,3.0,12.0,73,0.00,,,0.02,9.000000,,2013-01-10 23:43:00,
2013-01-10 18:53:00,59.0,50.0,-100.00,ESE,107,3.0,12.0,73,0.00,,,0.02,9.000000,,2013-01-10 23:53:00,
2013-01-10 19:03:00,59.0,50.0,-100.00,ESE,107,3.0,12.0,73,0.00,,,0.02,9.000000,,2013-01-11 00:03:00,
2013-01-10 19:33:00,58.0,50.0,-100.00,East,90,4.0,11.0,74,0.00,,,0.02,0.000000,,2013-01-11 00:33:00,
2013-01-10 19:43:00,58.0,50.0,-100.00,East,90,4.0,11.0,74,0.00,,,0.02,0.000000,,2013-01-11 00:43:00,
2013-01-10 19:53:00,58.0,50.0,-100.00,East,90,4.0,11.0,74,0.00,,,0.02,0.000000,,2013-01-11 00:53:00,
2013-01-10 20:03:00,58.0,50.0,-100.00,East,90,4.0,11.0,74,0.00,,,0.02,0.000000,,2013-01-11 01:03:00,
2013-01-10 20:34:00,59.0,50.0,-100.00,ESE,111,5.0,16.0,73,0.00,,,0.02,0.000000,,2013-01-11 01:34:00,
2013-01-10 20:43:00,59.0,50.0,-100.00,ESE,111,5.0,16.0,73,0.00,,,0.02,0.000000,,2013-01-11 01:43:00,
2013-01-10 20:53:00,59.0,50.0,-100.00,ESE,111,5.0,16.0,73,0.00,,,0.02,0.000000,,2013-01-11 01:53:00,
2013-01-10 21:03:00,59.0,50.0,-100.00,ESE,111,5.0,16.0,73,0.00,,,0.02,0.000000,,2013-01-11 02:03:00,
2013-01-10 21:33:00,58.0,51.0,-100.00,SE,144,9.0,22.0,77,0.00,,,0.01,0.000000,,2013-01-11 02:33:00,
2013-01-10 21:44:00,58.0,51.0,-100.00,SE,144,9.0,22.0,77,0.00,,,0.01,0.000000,,2013-01-11 02:44:00,
2013-01-10 21:54:00,58.0,51.0,-100.00,SE,144,9.0,22.0,77,0.00,,,0.01,0.000000,,2013-01-11 02:54:00,
2013-01-10 22:03:00,58.0,51.0,-100.00,SE,144,9.0,22.0,77,0.00,,,0.01,0.000000,,2013-01-11 03:03:00,
2013-01-10 22:34:00,54.0,51.0,-100.00,SE,132,9.0,25.0,91,0.02,,,0.02,0.000000,,2013-01-11 03:34:00,
2013-01-10 22:43:00,54.0,51.0,-100.00,SE,132,9.0,25.0,91,0.02,,,0.02,0.000000,,2013-01-11 03:43:00,
2013-01-10 22:53:00,54.0,51.0,-100.00,SE,132,9.0,25.0,91,0.02,,,0.02,0.000000,,2013-01-11 03:53:00,
2013-01-10 23:02:00,54.0,51.0,-100.00,SE,132,9.0,25.0,91,0.02,,,0.02,0.000000,,2013-01-11 04:02:00,
2013-01-10 23:33:00,54.0,53.0,-100.00,SE,129,8.0,18.0,95,0.01,,,0.03,0.000000,,2013-01-11 04:33:00,
2013-01-10 23:43:00,54.0,53.0,-100.00,SE,129,8.0,18.0,95,0.01,,,0.03,0.000000,,2013-01-11 04:43:00,
2013-01-10 23:53:00,54.0,53.0,-100.00,SE,129,8.0,18.0,95,0.01,,,0.03,0.000000,,2013-01-11 04:53:00,